Starlink 11501

operational
NORAD ID: 62268 Int'l Des: 2024-237 Owner: SPXS Country: US Constellation: starlink
LEOCIRCULAR

关于 Starlink 11501

正在加载描述...

实时位置

正在加载3D地球...

即将过境

高度历史

Altitude vs Time

uPlot chart will show altitude changes over time

两行轨道根数

1 62268U 24237B 25304.74403589 .00279334 00000-0 21018-2 0 9998
2 62268 42.9985 113.7503 0001732 224.3985 135.6744 15.70910737 52725
Epoch: Oct 31, 2025 • Age: 18 hours

当前状态

高度 359.9 km
速度 7.69 km/s
星下点 -20.64°S, 136.04°W
发射日期 Dec 8, 2024
运行时间 0.8 years
类型 internet

技术详情

分类 Payload
质量 960.00 kg
干质量 910.00 kg
总质量 960.00 kg
长度 0.30 m
直径 4.10 m
跨度 29.00 m
形状 Box + pan
制造商 SPXS
平台类型 Starlink V2MD
阶段状态 In Orbit
所有者/国家 SPXS/US

大型星座

Loading constellations...